| time (UTC) | temp F | wind direction | speed MPH | gust MPH | rain 1hr in | rain 24hr in | rain mn in | humidity % | barometer mb |
| 20260508090640 | 40 | 295 | 1.0 | 5.0 | 0.00 | 0.06 | 0.00 | 72 | 1011.8 |
| 20260508090141 | 40 | 344 | 0.0 | 3.0 | 0.00 | 0.06 | 0.00 | 71 | 1011.9 |
| 20260508085644 | 40 | 19 | 1.0 | 3.0 | 0.00 | 0.07 | 0.00 | 70 | 1011.9 |
| 20260508085640 | 40 | 19 | 1.0 | 3.0 | 0.00 | 0.07 | 0.00 | 71 | 1011.9 |
| 20260508084640 | 40 | 19 | 0.0 | 2.0 | 0.00 | 0.07 | 0.00 | 69 | 1011.8 |
| 20260508084140 | 40 | 19 | 1.0 | 2.0 | 0.00 | 0.07 | 0.00 | 68 | 1011.8 |
| 20260508083640 | 41 | 19 | 0.0 | 2.0 | 0.00 | 0.07 | 0.00 | 67 | 1011.9 |
| 20260508083140 | 41 | 19 | 1.0 | 3.0 | 0.00 | 0.08 | 0.00 | 66 | 1011.9 |
| 20260508082640 | 41 | 19 | 1.0 | 3.0 | 0.00 | 0.08 | 0.00 | 66 | 1011.9 |
| 20260508082140 | 41 | 19 | 1.0 | 3.0 | 0.00 | 0.08 | 0.00 | 67 | 1012.0 |
| 20260508081640 | 41 | 19 | 1.0 | 3.0 | 0.00 | 0.08 | 0.00 | 66 | 1012.0 |
| 20260508081140 | 42 | 19 | 1.0 | 3.0 | 0.00 | 0.09 | 0.00 | 65 | 1012.1 |
| 20260508080640 | 42 | 19 | 1.0 | 3.0 | 0.00 | 0.10 | 0.00 | 65 | 1012.2 |
| 20260508080140 | 42 | 19 | 0.0 | 2.0 | 0.00 | 0.11 | 0.00 | 64 | 1012.1 |
| 20260508075638 | 42 | 19 | 1.0 | 3.0 | 0.00 | 0.12 | 0.11 | 63 | 1012.2 |
| 20260508075134 | 42 | 19 | 1.0 | 3.0 | 0.00 | 0.14 | 0.11 | 61 | 1012.2 |
| 20260508074635 | 43 | 19 | 0.0 | 3.0 | 0.00 | 0.15 | 0.11 | 60 | 1012.3 |
| 20260508074135 | 43 | 164 | 1.0 | 3.0 | 0.00 | 0.16 | 0.11 | 60 | 1012.3 |
| 20260508073636 | 43 | 164 | 1.0 | 4.0 | 0.00 | 0.17 | 0.11 | 60 | 1012.4 |
| 20260508073134 | 43 | 160 | 1.0 | 5.0 | 0.00 | 0.18 | 0.11 | 60 | 1012.4 |
| 20260508072636 | 43 | 160 | 2.0 | 5.0 | 0.00 | 0.18 | 0.11 | 60 | 1012.5 |
| 20260508072631 | 43 | 144 | 1.0 | 4.0 | 0.00 | 0.18 | 0.11 | 60 | 1012.5 |
| 20260508072236 | 43 | 164 | 2.0 | 5.0 | 0.00 | 0.18 | 0.11 | 60 | 1012.5 |
| 20260508071130 | 43 | 162 | 3.0 | 10.0 | 0.00 | 0.19 | 0.11 | 60 | 1012.6 |
| 20260508070630 | 44 | 126 | 3.0 | 10.0 | 0.00 | 0.20 | 0.11 | 60 | 1012.6 |
| 20260508070131 | 44 | 145 | 3.0 | 9.0 | 0.00 | 0.20 | 0.11 | 61 | 1012.6 |
| 20260508065631 | 44 | 147 | 4.0 | 9.0 | 0.00 | 0.20 | 0.11 | 61 | 1012.6 |
| 20260508065131 | 44 | 139 | 6.0 | 13.0 | 0.00 | 0.21 | 0.11 | 61 | 1012.6 |
| 20260508064630 | 44 | 156 | 7.0 | 14.0 | 0.00 | 0.22 | 0.11 | 61 | 1012.6 |
| 20260508064130 | 44 | 163 | 6.0 | 14.0 | 0.00 | 0.23 | 0.11 | 61 | 1012.6 |
| 20260508063630 | 44 | 156 | 5.0 | 12.0 | 0.00 | 0.25 | 0.11 | 61 | 1012.6 |
| 20260508063131 | 44 | 199 | 4.0 | 10.0 | 0.00 | 0.26 | 0.11 | 62 | 1012.6 |
| 20260508062633 | 44 | 180 | 4.0 | 9.0 | 0.00 | 0.26 | 0.11 | 62 | 1012.6 |
| 20260508062131 | 44 | 195 | 5.0 | 13.0 | 0.00 | 0.26 | 0.11 | 62 | 1012.7 |
| 20260508061630 | 44 | 191 | 5.0 | 15.0 | 0.00 | 0.27 | 0.11 | 62 | 1012.7 |
| 20260508061130 | 44 | 179 | 5.0 | 15.0 | 0.00 | 0.28 | 0.11 | 62 | 1012.7 |
| 20260508060631 | 44 | 170 | 5.0 | 9.0 | 0.00 | 0.28 | 0.11 | 62 | 1012.7 |
| 20260508060131 | 44 | 166 | 5.0 | 13.0 | 0.00 | 0.28 | 0.11 | 62 | 1012.8 |
| 20260508055627 | 44 | 148 | 5.0 | 13.0 | 0.00 | 0.29 | 0.11 | 61 | 1012.7 |
| 20260508055127 | 44 | 156 | 4.0 | 9.0 | 0.00 | 0.29 | 0.11 | 62 | 1012.8 |
| 20260508054627 | 44 | 166 | 3.0 | 9.0 | 0.00 | 0.29 | 0.11 | 63 | 1012.8 |
| 20260508054127 | 44 | 198 | 3.0 | 8.0 | 0.00 | 0.29 | 0.11 | 64 | 1012.7 |
| 20260508053631 | 44 | 200 | 4.0 | 10.0 | 0.00 | 0.30 | 0.11 | 63 | 1012.8 |
| 20260508053626 | 44 | 210 | 4.0 | 10.0 | 0.00 | 0.30 | 0.11 | 64 | 1012.8 |
| 20260508052628 | 45 | 179 | 4.0 | 12.0 | 0.00 | 0.31 | 0.11 | 62 | 1012.8 |
| 20260508052624 | 45 | 169 | 4.0 | 8.0 | 0.00 | 0.30 | 0.11 | 62 | 1012.7 |
| 20260508051624 | 45 | 160 | 4.0 | 12.0 | 0.00 | 0.31 | 0.11 | 63 | 1012.8 |
| 20260508051124 | 45 | 140 | 5.0 | 10.0 | 0.00 | 0.31 | 0.11 | 63 | 1012.8 |
| 20260508050624 | 45 | 149 | 4.0 | 14.0 | 0.00 | 0.32 | 0.11 | 63 | 1012.8 |
| 20260508050124 | 45 | 158 | 5.0 | 14.0 | 0.00 | 0.32 | 0.11 | 61 | 1012.8 |
| 20260508045625 | 45 | 119 | 6.0 | 14.0 | 0.00 | 0.32 | 0.11 | 59 | 1012.8 |
| 20260508045124 | 46 | 168 | 5.0 | 14.0 | 0.00 | 0.32 | 0.11 | 58 | 1012.9 |
| 20260508044624 | 46 | 193 | 3.0 | 9.0 | 0.00 | 0.32 | 0.11 | 59 | 1012.9 |
| 20260508044128 | 46 | 148 | 3.0 | 9.0 | 0.00 | 0.32 | 0.11 | 59 | 1013.0 |
| 20260508044124 | 46 | 166 | 3.0 | 9.0 | 0.00 | 0.32 | 0.11 | 59 | 1012.9 |
| 20260508043125 | 46 | 141 | 2.0 | 6.0 | 0.00 | 0.32 | 0.11 | 59 | 1013.1 |
| 20260508042629 | 47 | 97 | 2.0 | 8.0 | 0.00 | 0.32 | 0.11 | 59 | 1013.0 |
| 20260508042625 | 46 | 171 | 3.0 | 8.0 | 0.00 | 0.32 | 0.11 | 60 | 1013.1 |
| 20260508042230 | 47 | 122 | 1.0 | 7.0 | 0.00 | 0.32 | 0.11 | 60 | 1013.1 |
| 20260508041118 | 47 | 341 | 1.0 | 3.0 | 0.00 | 0.32 | 0.11 | 61 | 1013.1 |
| 20260508040616 | 47 | 341 | 1.0 | 4.0 | 0.00 | 0.32 | 0.11 | 61 | 1013.3 |
| 20260508040116 | 47 | 338 | 1.0 | 4.0 | 0.00 | 0.32 | 0.11 | 61 | 1013.2 |
| 20260508035620 | 47 | 347 | 1.0 | 3.0 | 0.00 | 0.32 | 0.11 | 61 | 1013.3 |
| 20260508035616 | 47 | 15 | 1.0 | 3.0 | 0.00 | 0.32 | 0.11 | 62 | 1013.2 |
| 20260508034616 | 47 | 350 | 1.0 | 3.0 | 0.00 | 0.32 | 0.11 | 61 | 1013.3 |
| 20260508034116 | 47 | 347 | 2.0 | 5.0 | 0.00 | 0.32 | 0.11 | 61 | 1013.5 |
| 20260508033616 | 46 | 356 | 2.0 | 5.0 | 0.00 | 0.32 | 0.11 | 61 | 1013.5 |
| 20260508033117 | 46 | 340 | 2.0 | 4.0 | 0.00 | 0.32 | 0.11 | 62 | 1013.5 |
| 20260508032621 | 46 | 327 | 2.0 | 4.0 | 0.00 | 0.32 | 0.11 | 62 | 1013.6 |
| 20260508032617 | 46 | 319 | 2.0 | 4.0 | 0.00 | 0.32 | 0.11 | 62 | 1013.5 |
| 20260508031615 | 46 | 342 | 2.0 | 5.0 | 0.00 | 0.32 | 0.11 | 61 | 1013.6 |
| 20260508031110 | 46 | 6 | 2.0 | 5.0 | 0.00 | 0.32 | 0.11 | 63 | 1013.6 |
| 20260508030610 | 46 | 344 | 3.0 | 5.0 | 0.00 | 0.32 | 0.11 | 63 | 1013.6 |
| 20260508030110 | 46 | 313 | 3.0 | 8.0 | 0.00 | 0.32 | 0.11 | 63 | 1013.8 |
| 20260508025610 | 46 | 349 | 3.0 | 8.0 | 0.00 | 0.32 | 0.11 | 63 | 1013.7 |
| 20260508025110 | 46 | 351 | 2.0 | 5.0 | 0.00 | 0.32 | 0.11 | 65 | 1013.7 |
| 20260508024610 | 46 | 334 | 2.0 | 5.0 | 0.00 | 0.32 | 0.11 | 63 | 1013.8 |
| 20260508024110 | 46 | 339 | 2.0 | 6.0 | 0.00 | 0.32 | 0.11 | 64 | 1013.9 |
| 20260508023610 | 46 | 333 | 2.0 | 6.0 | 0.00 | 0.32 | 0.11 | 65 | 1013.9 |
| 20260508023108 | 46 | 321 | 2.0 | 5.0 | 0.00 | 0.32 | 0.11 | 64 | 1013.9 |
| 20260508022608 | 46 | 291 | 1.0 | 3.0 | 0.00 | 0.32 | 0.11 | 65 | 1013.9 |
| 20260508022109 | 46 | 329 | 2.0 | 5.0 | 0.00 | 0.32 | 0.11 | 66 | 1013.9 |
| 20260508021608 | 46 | 330 | 2.0 | 5.0 | 0.00 | 0.32 | 0.11 | 65 | 1014.1 |
| 20260508021108 | 46 | 356 | 1.0 | 4.0 | 0.00 | 0.32 | 0.11 | 64 | 1014.2 |
| 20260508020608 | 46 | 31 | 2.0 | 4.0 | 0.00 | 0.32 | 0.11 | 65 | 1014.2 |
| 20260508020108 | 46 | 29 | 3.0 | 5.0 | 0.00 | 0.32 | 0.11 | 64 | 1014.2 |
| 20260508015606 | 46 | 29 | 3.0 | 6.0 | 0.00 | 0.32 | 0.11 | 65 | 1014.2 |
| 20260508015107 | 46 | 6 | 3.0 | 7.0 | 0.00 | 0.32 | 0.11 | 66 | 1014.2 |
| 20260508014611 | 46 | 325 | 3.0 | 6.0 | 0.00 | 0.32 | 0.11 | 65 | 1014.3 |
| 20260508014606 | 46 | 12 | 4.0 | 7.0 | 0.00 | 0.32 | 0.11 | 66 | 1014.3 |
| 20260508013608 | 46 | 334 | 3.0 | 7.0 | 0.00 | 0.32 | 0.11 | 65 | 1014.3 |
| 20260508013106 | 46 | 6 | 2.0 | 7.0 | 0.00 | 0.32 | 0.11 | 64 | 1014.3 |
| 20260508012610 | 46 | 324 | 3.0 | 6.0 | 0.00 | 0.32 | 0.11 | 64 | 1014.5 |
| 20260508012606 | 46 | 59 | 2.0 | 5.0 | 0.00 | 0.32 | 0.11 | 65 | 1014.4 |
| 20260508011606 | 46 | 329 | 2.0 | 6.0 | 0.00 | 0.32 | 0.11 | 63 | 1014.5 |
| 20260508011106 | 46 | 297 | 2.0 | 4.0 | 0.00 | 0.32 | 0.11 | 63 | 1014.5 |
| 20260508010604 | 46 | 297 | 2.0 | 4.0 | 0.00 | 0.32 | 0.11 | 63 | 1014.6 |
| 20260508010105 | 46 | 280 | 2.0 | 4.0 | 0.00 | 0.32 | 0.11 | 63 | 1014.6 |
| 20260508005605 | 46 | 299 | 2.0 | 5.0 | 0.00 | 0.32 | 0.11 | 62 | 1014.7 |
| 20260508005108 | 46 | 320 | 2.0 | 5.0 | 0.00 | 0.32 | 0.11 | 62 | 1014.7 |
| 20260508005104 | 46 | 280 | 2.0 | 5.0 | 0.00 | 0.32 | 0.11 | 64 | 1014.7 |
| 20260508004103 | 46 | 320 | 1.0 | 4.0 | 0.00 | 0.32 | 0.11 | 64 | 1014.8 |
| 20260508003602 | 46 | 320 | 1.0 | 4.0 | 0.00 | 0.33 | 0.11 | 65 | 1014.8 |
| 20260508003102 | 46 | 294 | 1.0 | 5.0 | 0.00 | 0.33 | 0.11 | 65 | 1014.8 |
| 20260508002602 | 45 | 297 | 1.0 | 5.0 | 0.00 | 0.33 | 0.11 | 65 | 1014.9 |
| 20260508002106 | 45 | 28 | 2.0 | 4.0 | 0.00 | 0.33 | 0.11 | 66 | 1015.0 |
| 20260508002102 | 45 | 320 | 1.0 | 4.0 | 0.00 | 0.33 | 0.11 | 66 | 1014.9 |
| 20260508001102 | 45 | 314 | 3.0 | 5.0 | 0.00 | 0.33 | 0.11 | 66 | 1015.1 |
| 20260508000602 | 45 | 303 | 3.0 | 5.0 | 0.00 | 0.33 | 0.11 | 67 | 1015.1 |
| 20260507235602 | 45 | 297 | 2.0 | 7.0 | 0.00 | 0.34 | 0.11 | 67 | 1015.1 |
| 20260507235102 | 45 | 285 | 1.0 | 6.0 | 0.00 | 0.34 | 0.11 | 66 | 1015.2 |
| 20260507234601 | 45 | 344 | 2.0 | 6.0 | 0.00 | 0.34 | 0.11 | 66 | 1015.2 |
| 20260507234101 | 45 | 288 | 3.0 | 7.0 | 0.00 | 0.35 | 0.11 | 68 | 1015.3 |
| 20260507233556 | 45 | 316 | 3.0 | 7.0 | 0.00 | 0.35 | 0.11 | 67 | 1015.3 |
| 20260507233056 | 45 | 326 | 4.0 | 9.0 | 0.00 | 0.35 | 0.11 | 68 | 1015.3 |
| 20260507232557 | 45 | 283 | 3.0 | 9.0 | 0.00 | 0.35 | 0.11 | 68 | 1015.4 |
| 20260507232055 | 45 | 290 | 4.0 | 10.0 | 0.00 | 0.35 | 0.11 | 69 | 1015.3 |
| 20260507232050 | 45 | 294 | 3.0 | 7.0 | 0.00 | 0.35 | 0.11 | 69 | 1015.4 |
| 20260507231046 | 45 | 272 | 4.0 | 10.0 | 0.00 | 0.35 | 0.11 | 69 | 1015.4 |
| 20260507230550 | 45 | 276 | 4.0 | 7.0 | 0.00 | 0.35 | 0.11 | 68 | 1015.4 |
| 20260507230546 | 45 | 347 | 4.0 | 7.0 | 0.00 | 0.35 | 0.11 | 68 | 1015.4 |
| 20260507225541 | 45 | 292 | 4.0 | 7.0 | 0.00 | 0.35 | 0.11 | 67 | 1015.5 |
| 20260507225041 | 45 | 293 | 3.0 | 7.0 | 0.00 | 0.35 | 0.11 | 68 | 1015.6 |
| 20260507224542 | 45 | 279 | 3.0 | 7.0 | 0.00 | 0.35 | 0.11 | 68 | 1015.6 |
| 20260507224042 | 44 | 287 | 3.0 | 7.0 | 0.00 | 0.35 | 0.11 | 69 | 1015.6 |
| 20260507223542 | 44 | 299 | 3.0 | 7.0 | 0.00 | 0.35 | 0.11 | 66 | 1015.6 |
| 20260507223041 | 44 | 267 | 4.0 | 8.0 | 0.00 | 0.35 | 0.11 | 68 | 1015.7 |
| 20260507222541 | 44 | 266 | 4.0 | 8.0 | 0.00 | 0.35 | 0.11 | 66 | 1015.7 |
| 20260507222043 | 44 | 295 | 3.0 | 6.0 | 0.00 | 0.35 | 0.11 | 67 | 1015.8 |
| 20260507222038 | 44 | 302 | 3.0 | 6.0 | 0.00 | 0.35 | 0.11 | 65 | 1015.8 |
| 20260507221641 | 45 | 266 | 3.0 | 7.0 | 0.00 | 0.35 | 0.11 | 63 | 1015.8 |
| 20260507220536 | 46 | 249 | 1.0 | 7.0 | 0.00 | 0.35 | 0.11 | 61 | 1015.8 |
| 20260507220038 | 46 | 181 | 1.0 | 4.0 | 0.00 | 0.35 | 0.11 | 62 | 1015.8 |
| 20260507220034 | 46 | 185 | 1.0 | 4.0 | 0.00 | 0.35 | 0.11 | 63 | 1015.8 |
| 20260507215034 | 46 | 338 | 1.0 | 4.0 | 0.00 | 0.35 | 0.11 | 65 | 1015.8 |
| 20260507214534 | 46 | 13 | 1.0 | 4.0 | 0.00 | 0.35 | 0.11 | 65 | 1015.8 |
| 20260507214034 | 46 | 289 | 2.0 | 4.0 | 0.00 | 0.35 | 0.11 | 63 | 1015.9 |
| 20260507213535 | 46 | 332 | 2.0 | 4.0 | 0.00 | 0.35 | 0.11 | 64 | 1015.9 |
| 20260507213033 | 46 | 324 | 1.0 | 3.0 | 0.00 | 0.35 | 0.11 | 65 | 1015.9 |
| 20260507212532 | 46 | 307 | 1.0 | 3.0 | 0.00 | 0.35 | 0.11 | 65 | 1016.0 |
| 20260507212032 | 45 | 167 | 1.0 | 4.0 | 0.00 | 0.35 | 0.11 | 67 | 1016.0 |
| 20260507211532 | 44 | 316 | 3.0 | 6.0 | 0.00 | 0.35 | 0.11 | 67 | 1016.1 |
| 20260507211031 | 44 | 279 | 3.0 | 6.0 | 0.00 | 0.35 | 0.11 | 65 | 1016.1 |
| 20260507210531 | 44 | 308 | 2.0 | 5.0 | 0.00 | 0.35 | 0.11 | 66 | 1016.2 |
| 20260507210036 | 44 | 71 | 1.0 | 5.0 | 0.00 | 0.35 | 0.11 | 65 | 1016.2 |
| 20260507210032 | 44 | 270 | 1.0 | 5.0 | 0.00 | 0.35 | 0.11 | 66 | 1016.2 |
| 20260507205028 | 44 | 143 | 1.0 | 5.0 | 0.00 | 0.35 | 0.11 | 65 | 1016.3 |
| 20260507204528 | 44 | 343 | 1.0 | 6.0 | 0.00 | 0.35 | 0.11 | 65 | 1016.3 |
| 20260507204028 | 44 | 345 | 2.0 | 6.0 | 0.00 | 0.35 | 0.11 | 68 | 1016.4 |
| 20260507203531 | 44 | 24 | 2.0 | 5.0 | 0.00 | 0.35 | 0.11 | 68 | 1016.4 |
| 20260507203527 | 44 | 14 | 2.0 | 5.0 | 0.00 | 0.35 | 0.11 | 67 | 1016.4 |
| 20260507202528 | 43 | 324 | 2.0 | 4.0 | 0.00 | 0.35 | 0.11 | 68 | 1016.5 |
| 20260507202028 | 43 | 324 | 2.0 | 4.0 | 0.00 | 0.35 | 0.11 | 68 | 1016.6 |
| 20260507201527 | 43 | 292 | 2.0 | 4.0 | 0.00 | 0.35 | 0.11 | 69 | 1016.6 |
| 20260507201027 | 43 | 278 | 2.0 | 5.0 | 0.00 | 0.35 | 0.11 | 69 | 1016.5 |
| 20260507200527 | 43 | 6 | 1.0 | 5.0 | 0.00 | 0.35 | 0.11 | 70 | 1016.6 |
| 20260507200027 | 43 | 329 | 1.0 | 4.0 | 0.00 | 0.35 | 0.11 | 72 | 1016.5 |
| 20260507195528 | 43 | 329 | 1.0 | 4.0 | 0.00 | 0.35 | 0.11 | 71 | 1016.6 |
| 20260507195028 | 43 | 337 | 2.0 | 5.0 | 0.00 | 0.35 | 0.11 | 72 | 1016.6 |
| 20260507194528 | 43 | 336 | 1.0 | 5.0 | 0.00 | 0.35 | 0.11 | 72 | 1016.6 |
| 20260507194028 | 43 | 31 | 1.0 | 5.0 | 0.00 | 0.35 | 0.11 | 74 | 1016.8 |
| 20260507193528 | 42 | 6 | 1.0 | 5.0 | 0.00 | 0.35 | 0.11 | 74 | 1016.8 |
| 20260507193028 | 42 | 119 | 2.0 | 6.0 | 0.00 | 0.35 | 0.11 | 78 | 1016.8 |
| 20260507192527 | 42 | 78 | 2.0 | 6.0 | 0.00 | 0.35 | 0.11 | 77 | 1016.8 |
| 20260507192028 | 42 | 356 | 2.0 | 4.0 | 0.00 | 0.35 | 0.11 | 78 | 1016.9 |
| 20260507191529 | 41 | 133 | 3.0 | 5.0 | 0.00 | 0.35 | 0.11 | 82 | 1017.0 |
| 20260507191525 | 41 | 144 | 2.0 | 4.0 | 0.00 | 0.35 | 0.11 | 81 | 1017.0 |
| 20260507190526 | 40 | 127 | 2.0 | 5.0 | 0.00 | 0.35 | 0.11 | 81 | 1017.0 |
| 20260507190030 | 40 | 149 | 2.0 | 5.0 | 0.00 | 0.35 | 0.11 | 86 | 1017.0 |
| 20260507190026 | 41 | 140 | 2.0 | 4.0 | 0.00 | 0.35 | 0.11 | 84 | 1017.0 |
| 20260507185030 | 40 | 134 | 2.0 | 6.0 | 0.00 | 0.35 | 0.11 | 86 | 1017.0 |
| 20260507185026 | 40 | 141 | 2.0 | 6.0 | 0.00 | 0.35 | 0.11 | 86 | 1017.0 |
| 20260507184631 | 40 | 149 | 1.0 | 4.0 | 0.00 | 0.35 | 0.11 | 87 | 1017.0 |
| 20260507183526 | 39 | 125 | 1.0 | 3.0 | 0.00 | 0.35 | 0.11 | 88 | 1016.9 |
| 20260507183020 | 39 | 125 | 2.0 | 4.0 | 0.00 | 0.35 | 0.11 | 88 | 1016.9 |
| 20260507182518 | 39 | 124 | 2.0 | 4.0 | 0.00 | 0.35 | 0.11 | 89 | 1016.9 |
| 20260507182016 | 39 | 150 | 2.0 | 4.0 | 0.00 | 0.35 | 0.11 | 89 | 1017.0 |
| 20260507181515 | 39 | 136 | 2.0 | 4.0 | 0.00 | 0.35 | 0.11 | 89 | 1016.9 |
| 20260507181015 | 39 | 147 | 2.0 | 4.0 | 0.00 | 0.35 | 0.11 | 90 | 1016.9 |
| 20260507180516 | 39 | 154 | 2.0 | 4.0 | 0.00 | 0.35 | 0.11 | 90 | 1016.9 |
| 20260507180015 | 38 | 128 | 2.0 | 3.0 | 0.00 | 0.35 | 0.11 | 91 | 1016.9 |
| 20260507175515 | 38 | 121 | 1.0 | 4.0 | 0.00 | 0.35 | 0.11 | 91 | 1016.9 |
| 20260507175010 | 38 | 118 | 1.0 | 4.0 | 0.00 | 0.35 | 0.11 | 91 | 1016.9 |
| 20260507174509 | 38 | 122 | 1.0 | 3.0 | 0.00 | 0.35 | 0.11 | 92 | 1016.9 |
| 20260507174003 | 38 | 122 | 1.0 | 4.0 | 0.00 | 0.35 | 0.11 | 92 | 1017.0 |
| 20260507173502 | 38 | 122 | 1.0 | 4.0 | 0.00 | 0.35 | 0.11 | 92 | 1016.9 |
| 20260507172959 | 38 | 121 | 1.0 | 4.0 | 0.00 | 0.35 | 0.11 | 92 | 1017.0 |
| 20260507172459 | 38 | 121 | 2.0 | 4.0 | 0.00 | 0.35 | 0.11 | 92 | 1017.0 |
| 20260507172000 | 38 | 129 | 1.0 | 3.0 | 0.00 | 0.35 | 0.11 | 93 | 1017.0 |
| 20260507171503 | 38 | 129 | 2.0 | 4.0 | 0.00 | 0.35 | 0.11 | 94 | 1016.9 |
| 20260507171459 | 38 | 129 | 1.0 | 3.0 | 0.00 | 0.35 | 0.11 | 94 | 1017.0 |
| 20260507170459 | 38 | 129 | 2.0 | 4.0 | 0.00 | 0.35 | 0.11 | 95 | 1017.0 |
| 20260507170454 | 38 | 50 | 1.0 | 4.0 | 0.00 | 0.35 | 0.11 | 95 | 1017.0 |
| 20260507165457 | 38 | 33 | 2.0 | 4.0 | 0.00 | 0.35 | 0.11 | 95 | 1017.0 |
| 20260507165453 | 38 | 36 | 2.0 | 4.0 | 0.00 | 0.35 | 0.11 | 95 | 1017.1 |
| 20260507164457 | 38 | 356 | 1.0 | 3.0 | 0.00 | 0.35 | 0.11 | 95 | 1017.2 |
| 20260507164453 | 38 | 356 | 1.0 | 4.0 | 0.00 | 0.35 | 0.11 | 95 | 1017.1 |
| 20260507163451 | 37 | 356 | 2.0 | 4.0 | 0.00 | 0.35 | 0.11 | 95 | 1017.1 |
| 20260507162949 | 37 | 356 | 2.0 | 4.0 | 0.00 | 0.35 | 0.11 | 95 | 1017.1 |
| 20260507162448 | 37 | 29 | 2.0 | 3.0 | 0.00 | 0.35 | 0.11 | 95 | 1017.2 |
| 20260507161948 | 37 | 29 | 2.0 | 5.0 | 0.00 | 0.35 | 0.11 | 95 | 1017.1 |
| 20260507161943 | 37 | 29 | 2.0 | 3.0 | 0.00 | 0.35 | 0.11 | 95 | 1017.2 |
| 20260507160941 | 37 | 55 | 2.0 | 5.0 | 0.00 | 0.35 | 0.11 | 95 | 1017.1 |
| 20260507160439 | 37 | 28 | 1.0 | 4.0 | 0.00 | 0.35 | 0.11 | 95 | 1017.2 |
| 20260507155937 | 37 | 28 | 0.0 | 3.0 | 0.00 | 0.35 | 0.11 | 96 | 1017.2 |
| 20260507155437 | 37 | 28 | 1.0 | 3.0 | 0.00 | 0.35 | 0.11 | 96 | 1017.1 |
| 20260507154937 | 37 | 28 | 0.0 | 2.0 | 0.00 | 0.35 | 0.11 | 96 | 1017.2 |
| 20260507154433 | 36 | 29 | 0.0 | 2.0 | 0.00 | 0.35 | 0.11 | 96 | 1017.1 |
| 20260507153933 | 36 | 29 | 1.0 | 3.0 | 0.01 | 0.35 | 0.11 | 95 | 1017.2 |
| 20260507153437 | 36 | 29 | 1.0 | 3.0 | 0.01 | 0.35 | 0.11 | 95 | 1017.1 |
| 20260507153433 | 36 | 29 | 1.0 | 3.0 | 0.01 | 0.35 | 0.11 | 95 | 1017.1 |
| 20260507152433 | 36 | 6 | 1.0 | 3.0 | 0.01 | 0.35 | 0.11 | 95 | 1017.1 |
| 20260507151931 | 36 | 6 | 0.0 | 3.0 | 0.01 | 0.35 | 0.11 | 96 | 1017.1 |
| 20260507151431 | 36 | 6 | 0.0 | 2.0 | 0.01 | 0.35 | 0.11 | 95 | 1017.1 |
| 20260507150931 | 36 | 6 | 0.0 | 2.0 | 0.01 | 0.35 | 0.11 | 95 | 1017.2 |
| 20260507150429 | 36 | 6 | 0.0 | 1.0 | 0.01 | 0.35 | 0.11 | 95 | 1017.1 |
| 20260507145927 | 35 | 6 | 0.0 | 1.0 | 0.01 | 0.35 | 0.11 | 95 | 1017.0 |
| 20260507145424 | 35 | 6 | 0.0 | 1.0 | 0.01 | 0.35 | 0.11 | 95 | 1017.1 |
| 20260507144925 | 35 | 6 | 0.0 | 0.0 | 0.01 | 0.35 | 0.11 | 95 | 1017.1 |
| 20260507144423 | 35 | 6 | 0.0 | 1.0 | 0.01 | 0.35 | 0.11 | 95 | 1017.0 |
| 20260507143923 | 35 | 6 | 0.0 | 1.0 | 0.00 | 0.34 | 0.10 | 95 | 1017.0 |
| 20260507143420 | 35 | 6 | 0.0 | 1.0 | 0.00 | 0.34 | 0.10 | 95 | 1017.0 |
| 20260507142921 | 35 | 6 | 0.0 | 0.0 | 0.00 | 0.34 | 0.10 | 95 | 1016.9 |
| 20260507142417 | 35 | 6 | 0.0 | 2.0 | 0.00 | 0.34 | 0.10 | 95 | 1017.0 |
| 20260507141917 | 35 | 6 | 0.0 | 2.0 | 0.01 | 0.34 | 0.10 | 95 | 1016.9 |
| 20260507141418 | 35 | 6 | 1.0 | 3.0 | 0.01 | 0.34 | 0.10 | 95 | 1016.9 |
| 20260507140915 | 35 | 6 | 1.0 | 3.0 | 0.02 | 0.34 | 0.10 | 95 | 1016.8 |
| 20260507140413 | 35 | 6 | 1.0 | 3.0 | 0.02 | 0.34 | 0.10 | 95 | 1016.9 |
| 20260507135916 | 35 | 6 | 1.0 | 3.0 | 0.02 | 0.34 | 0.10 | 95 | 1016.9 |
| 20260507135912 | 36 | 6 | 1.0 | 3.0 | 0.03 | 0.34 | 0.10 | 95 | 1016.8 |
| 20260507135516 | 36 | 6 | 1.0 | 3.0 | 0.03 | 0.34 | 0.10 | 95 | 1016.9 |
| 20260507135016 | 36 | 6 | 1.0 | 3.0 | 0.03 | 0.34 | 0.10 | 95 | 1016.9 |
| 20260507133909 | 36 | 6 | 2.0 | 4.0 | 0.03 | 0.34 | 0.10 | 95 | 1016.9 |
| 20260507133409 | 36 | 6 | 1.0 | 4.0 | 0.03 | 0.34 | 0.10 | 95 | 1016.9 |
| 20260507132909 | 36 | 6 | 1.0 | 3.0 | 0.03 | 0.34 | 0.10 | 95 | 1016.9 |
| 20260507132409 | 36 | 6 | 1.0 | 3.0 | 0.03 | 0.34 | 0.10 | 95 | 1016.9 |
| 20260507131907 | 36 | 6 | 0.0 | 3.0 | 0.02 | 0.33 | 0.09 | 95 | 1016.8 |
| 20260507131407 | 36 | 6 | 1.0 | 3.0 | 0.03 | 0.33 | 0.09 | 95 | 1016.6 |
| 20260507130905 | 36 | 6 | 1.0 | 3.0 | 0.02 | 0.32 | 0.09 | 95 | 1016.8 |
| 20260507130405 | 37 | 6 | 1.0 | 3.0 | 0.02 | 0.32 | 0.08 | 95 | 1016.8 |
| 20260507125904 | 37 | 6 | 1.0 | 3.0 | 0.02 | 0.32 | 0.08 | 95 | 1016.6 |
| 20260507125406 | 37 | 6 | 0.0 | 2.0 | 0.01 | 0.31 | 0.07 | 95 | 1016.6 |
| 20260507124905 | 37 | 6 | 0.0 | 1.0 | 0.01 | 0.31 | 0.07 | 95 | 1016.6 |
| 20260507124405 | 37 | 6 | 0.0 | 2.0 | 0.02 | 0.31 | 0.07 | 95 | 1016.6 |
| 20260507123907 | 37 | 6 | 0.0 | 2.0 | 0.02 | 0.31 | 0.07 | 95 | 1016.6 |
| 20260507123902 | 37 | 350 | 0.0 | 1.0 | 0.02 | 0.31 | 0.07 | 95 | 1016.6 |
| 20260507123505 | 37 | 351 | 0.0 | 1.0 | 0.02 | 0.31 | 0.07 | 95 | 1016.6 |
| 20260507123006 | 37 | 350 | 0.0 | 1.0 | 0.02 | 0.31 | 0.07 | 95 | 1016.8 |
| 20260507121904 | 37 | 350 | 0.0 | 2.0 | 0.01 | 0.30 | 0.06 | 95 | 1016.8 |
| 20260507121900 | 37 | 350 | 0.0 | 2.0 | 0.02 | 0.31 | 0.07 | 95 | 1016.6 |
| 20260507120901 | 37 | 350 | 0.0 | 1.0 | 0.01 | 0.30 | 0.06 | 95 | 1016.8 |
| 20260507120359 | 37 | 350 | 0.0 | 3.0 | 0.01 | 0.30 | 0.06 | 95 | 1016.6 |
| 20260507115901 | 37 | 350 | 0.0 | 3.0 | 0.01 | 0.30 | 0.06 | 95 | 1016.6 |
| 20260507115359 | 37 | 352 | 0.0 | 1.0 | 0.01 | 0.30 | 0.06 | 95 | 1016.8 |
| 20260507114856 | 37 | 352 | 0.0 | 1.0 | 0.01 | 0.30 | 0.06 | 95 | 1016.8 |
| 20260507114354 | 37 | 352 | 0.0 | 0.0 | 0.00 | 0.29 | 0.05 | 95 | 1016.6 |
| 20260507113855 | 37 | 352 | 0.0 | 0.0 | 0.00 | 0.29 | 0.05 | 95 | 1016.6 |
| 20260507113353 | 37 | 352 | 0.0 | 0.0 | 0.00 | 0.29 | 0.05 | 95 | 1016.6 |
| 20260507112853 | 37 | 352 | 0.0 | 0.0 | 0.00 | 0.29 | 0.05 | 95 | 1016.6 |
| 20260507112351 | 37 | 352 | 0.0 | 0.0 | 0.00 | 0.29 | 0.05 | 95 | 1016.6 |
| 20260507111854 | 37 | 352 | 0.0 | 0.0 | 0.00 | 0.29 | 0.05 | 95 | 1016.5 |
| 20260507111850 | 37 | 352 | 0.0 | 0.0 | 0.00 | 0.29 | 0.05 | 95 | 1016.6 |
| 20260507111456 | 37 | 352 | 0.0 | 0.0 | 0.00 | 0.29 | 0.05 | 95 | 1016.5 |
| 20260507110350 | 37 | 352 | 0.0 | 0.0 | 0.00 | 0.29 | 0.05 | 94 | 1016.5 |
| 20260507105849 | 37 | 352 | 0.0 | 0.0 | 0.00 | 0.29 | 0.05 | 94 | 1016.6 |
| 20260507105349 | 37 | 352 | 0.0 | 1.0 | 0.00 | 0.29 | 0.05 | 94 | 1016.5 |
| 20260507104847 | 37 | 352 | 0.0 | 1.0 | 0.00 | 0.29 | 0.05 | 94 | 1016.5 |
| 20260507104347 | 37 | 352 | 0.0 | 1.0 | 0.00 | 0.29 | 0.05 | 94 | 1016.5 |
| 20260507103846 | 37 | 352 | 0.0 | 3.0 | 0.00 | 0.29 | 0.05 | 94 | 1016.5 |
| 20260507103347 | 37 | 352 | 1.0 | 3.0 | 0.00 | 0.29 | 0.05 | 94 | 1016.5 |
| 20260507102846 | 37 | 350 | 1.0 | 3.0 | 0.00 | 0.29 | 0.05 | 94 | 1016.5 |
| 20260507102351 | 37 | 356 | 1.0 | 3.0 | 0.00 | 0.29 | 0.05 | 94 | 1016.6 |
| 20260507102347 | 37 | 356 | 1.0 | 3.0 | 0.00 | 0.29 | 0.05 | 94 | 1016.5 |
| 20260507101346 | 37 | 340 | 2.0 | 5.0 | 0.00 | 0.29 | 0.05 | 94 | 1016.6 |
| 20260507100850 | 37 | 314 | 2.0 | 5.0 | 0.00 | 0.29 | 0.05 | 94 | 1016.5 |
| 20260507100846 | 37 | 341 | 2.0 | 5.0 | 0.00 | 0.29 | 0.05 | 94 | 1016.5 |
| 20260507095851 | 38 | 322 | 2.0 | 4.0 | 0.01 | 0.29 | 0.05 | 94 | 1016.4 |
| 20260507095847 | 37 | 296 | 2.0 | 5.0 | 0.01 | 0.29 | 0.05 | 94 | 1016.5 |
| 20260507094846 | 38 | 320 | 1.0 | 4.0 | 0.01 | 0.29 | 0.05 | 94 | 1016.4 |
| 20260507094350 | 38 | 318 | 1.0 | 3.0 | 0.01 | 0.29 | 0.05 | 94 | 1016.4 |
| 20260507094346 | 38 | 342 | 1.0 | 4.0 | 0.01 | 0.29 | 0.05 | 94 | 1016.4 |
| 20260507093350 | 38 | 301 | 1.0 | 3.0 | 0.02 | 0.29 | 0.05 | 94 | 1016.4 |
| 20260507093346 | 38 | 301 | 1.0 | 3.0 | 0.02 | 0.29 | 0.05 | 94 | 1016.4 |
| 20260507092346 | 38 | 301 | 2.0 | 6.0 | 0.02 | 0.29 | 0.05 | 94 | 1016.3 |
| 20260507091851 | 38 | 295 | 1.0 | 4.0 | 0.02 | 0.29 | 0.05 | 94 | 1016.2 |
| 20260507091846 | 38 | 299 | 2.0 | 6.0 | 0.02 | 0.29 | 0.05 | 94 | 1016.3 |
| 20260507090849 | 38 | 301 | 2.0 | 3.0 | 0.03 | 0.29 | 0.05 | 94 | 1016.1 |
| 20260507090845 | 38 | 301 | 2.0 | 3.0 | 0.04 | 0.29 | 0.05 | 94 | 1016.0 |